[[{"header":{"parameterUnit":"m.s-1","parameterCategory":1,"la1":30.2991,"la2":30.254,"lo1":-89.0895,"lo2":-89.0444,"dy":0.0017,"dx":0.0017,"nx":28,"ny":28,"refTime":"2023-10-29T03:00:00:Z","depth":0,"parameterNumber":2,"parameterNumberName":"U-component_of_WINDS"},"data":[0,0,0,0,0,0,0,0,0,0,0,0,0,0,0,0,0,0,0,0,0,0,0,0,0,0,0,0,0,0,0,0,0,0,0,0,0,0,0,0,0,0,0,0,0,0,0,0,0,0,0,0,0,0,0,0,0,0,-1.572,-1.572,0,-1.5725,-1.5725,-1.5725,-1.5706,-1.5705,-1.5705,-1.5704,-1.5709,-1.5709,-1.571,0,0,0,0,0,0,0,0,0,0,0,0,0,-1.5692,-1.5693,-1.572,-1.572,-1.572,-1.5725,-1.5725,-1.5725,-1.5706,-1.5705,-1.5705,-1.5704,-1.5708,-1.5709,-1.571,0,0,0,0,0,0,0,0,0,0,0,0,0,-1.5701,-1.5693,-1.572,-1.5711,-1.571,-1.5725,-1.5725,-1.5725,-1.5706,-1.5705,-1.5704,-1.5704,-1.5708,-1.5709,-1.571,-1.5733,0,0,-1.5713,-1.5714,0,0,0,0,0,0,0,0,-1.5701,-1.5702,-1.5712,-1.5711,-1.5711,-1.5714,-1.5717,-1.5728,-1.5706,-1.5708,-1.5704,-1.5703,-1.5711,-1.5712,-1.5715,-1.5734,-1.5734,-1.5713,-1.5714,-1.5714,-1.5714,0,0,0,0,0,0,0,-1.57,-1.5702,-1.5722,-1.5712,-1.5711,-1.5706,-1.5707,-1.5719,-1.5714,-1.5707,-1.5706,-1.5707,-1.571,-1.5714,-1.5715,-1.5734,-1.5713,-1.5714,-1.5715,-1.5715,-1.5774,-1.5775,0,0,0,0,0,0,-1.5701,-1.5702,-1.5721,-1.5722,-1.5704,-1.5708,-1.5708,-1.5714,-1.5714,-1.5713,-1.5708,-1.5706,-1.5712,-1.5713,-1.5715,-1.5743,-1.5714,-1.5715,-1.5716,-1.5773,-1.5774,-1.5775,0,0,0,0,0,0,-1.57,-1.5703,-1.5721,-1.5711,-1.5713,-1.5709,-1.5716,-1.5714,-1.5717,-1.5714,-1.5713,-1.5712,-1.5712,-1.5713,-1.5729,-1.5743,-1.5716,-1.5716,-1.5772,-1.5773,-1.5775,-1.5799,0,0,0,0,0,0,-1.57,-1.5703,-1.5711,-1.5712,-1.5714,-1.5736,-1.5716,-1.5715,-1.5719,-1.5717,-1.5718,-1.5717,-1.5711,-1.5728,-1.573,-1.5743,-1.5717,-1.5771,-1.5773,-1.5774,-1.5797,-1.5801,-1.5804,0,0,0,0,0,-1.5699,-1.5717,-1.5712,-1.5714,-1.5725,-1.5737,-1.5738,-1.5731,-1.572,-1.5729,-1.5727,-1.5717,-1.5741,-1.573,-1.5732,-1.5746,-1.577,-1.5772,-1.5774,-1.5795,-1.58,-1.5804,0,0,0,0,0,0,-1.5718,-1.5717,-1.5711,-1.5731,-1.5734,-1.5733,-1.5744,-1.5737,-1.5742,-1.574,-1.5731,-1.5732,-1.5749,-1.5749,-1.5737,-1.5769,-1.5753,-1.5756,-1.5769,-1.5773,-1.5777,-1.5776,-1.5718,0,0,0,0,0,-1.5724,-1.5734,-1.5733,-1.575,-1.5753,-1.5748,-1.5753,-1.5748,-1.5751,-1.5752,-1.5751,-1.5754,-1.5762,-1.5768,-1.5775,-1.5797,-1.5797,-1.5808,-1.5812,-1.5815,-1.5817,-1.5829,-1.5834,-1.5782,-1.5782,-1.5782,0,0,-1.5738,-1.5739,-1.5745,-1.5754,-1.5756,-1.5767,-1.5749,-1.5761,-1.5769,-1.5753,-1.5769,-1.5769,-1.5771,-1.5791,-1.5799,-1.5791,-1.5832,-1.5817,-1.582,-1.5821,-1.5832,-1.5837,-1.5841,-1.5784,-1.5784,-1.5783,0,0,-1.5767,-1.5769,-1.5784,-1.5787,-1.5791,-1.5788,-1.5792,-1.5793,-1.5792,-1.5808,-1.5797,-1.5806,-1.5821,-1.5823,-1.5827,-1.586,-1.5851,-1.5863,-1.5882,-1.5894,-1.5899,-1.5902,-1.5914,-1.5919,-1.5865,-1.5865,-1.5865,0,-1.5783,-1.5799,-1.5793,-1.5806,-1.581,-1.5798,-1.5814,-1.5816,-1.5822,-1.5826,-1.5817,-1.5835,-1.5836,-1.5857,-1.5865,-1.5868,-1.5872,-1.5862,-1.5899,-1.5902,-1.5905,-1.5917,-1.5921,-1.5867,-1.5866,-1.5866,-1.5866,0,-1.5819,-1.583,-1.5842,-1.5849,-1.5855,-1.5869,-1.5865,-1.5872,-1.5866,-1.5865,-1.5881,-1.5883,-1.589,-1.5895,-1.5889,-1.5915,-1.591,-1.59,-1.5884,-1.5912,-1.5922,-1.5927,-1.5869,-1.5868,-1.5868,-1.5867,0,0,-1.5859,-1.5864,-1.5868,-1.5872,-1.5876,-1.5885,-1.5899,-1.5907,-1.5913,-1.5918,-1.593,-1.5943,-1.5935,-1.5938,-1.5933,-1.5944,-1.5971,-1.5933,-1.5933,-1.594,-1.6,-1.6007,-1.6012,-1.5966,-1.5966,-1.5967,-1.6,0,-1.5889,-1.5913,-1.5909,-1.5932,-1.5943,-1.5933,-1.5945,-1.5949,-1.5948,-1.5957,-1.5956,-1.5966,-1.5954,-1.5956,-1.5967,-1.5966,-1.5983,-1.5963,-1.5976,-1.5977,-1.5975,-1.6018,-1.6025,-1.6056,-1.6004,-1.6005,-1.6005,0,-1.5926,-1.5934,-1.5959,-1.5963,-1.5967,-1.5978,-1.5986,-1.5995,-1.6,-1.5998,-1.6004,-1.5997,-1.6011,-1.5996,-1.6016,-1.6002,-1.6008,-1.6008,-1.6009,-1.601,-1.5992,-1.6019,-1.6066,-1.607,-1.6011,-1.6011,-1.6011,0,-1.5953,-1.597,-1.5987,-1.5991,-1.5995,-1.6004,-1.6006,-1.601,-1.6016,-1.6023,-1.6027,-1.6035,-1.604,-1.6047,-1.6043,-1.6032,-1.6064,-1.6048,-1.6063,-1.6063,-1.607,-1.6069,-1.6117,-1.6074,-1.6073,-1.6073,-1.6073,0,-1.5987,-1.6002,-1.6,-1.601,-1.6028,-1.6023,-1.6041,-1.6042,-1.6046,-1.6057,-1.6048,-1.6059,-1.6053,-1.6063,-1.606,-1.6077,-1.6079,-1.6079,-1.6078,-1.6079,-1.6079,-1.6082,-1.608,-1.6075,-1.6074,-1.6074,-1.6074,0,-1.602,-1.6018,-1.6037,-1.6041,-1.6042,-1.6055,-1.6058,-1.6068,-1.6068,-1.6082,-1.6085,-1.6084,-1.6095,-1.6092,-1.6104,-1.6103,-1.6124,-1.612,-1.6123,-1.6122,-1.6138,-1.6136,-1.6189,-1.6195,-1.6148,-1.6148,-1.6148,0,-1.6041,-1.6053,-1.6059,-1.6066,-1.6069,-1.608,-1.6087,-1.6083,-1.609,-1.6098,-1.6107,-1.6118,-1.6126,-1.6145,-1.6145,-1.6155,-1.6151,-1.6169,-1.6153,-1.6154,-1.6152,-1.6151,-1.6152,-1.6172,-1.6173,-1.6173,-1.6174,0,-1.6079,-1.6078,-1.6088,-1.6098,-1.6107,-1.6114,-1.6121,-1.6127,-1.6124,-1.6132,-1.6145,-1.6151,-1.6165,-1.6176,-1.6185,-1.6187,-1.618,-1.6179,-1.6183,-1.6185,-1.6186,-1.6185,-1.6132,-1.6178,-1.6177,-1.6177,-1.6177,-1.6176,-1.6106,-1.6117,-1.6123,-1.6135,-1.614,-1.6147,-1.6157,-1.6159,-1.6169,-1.618,-1.6177,-1.6191,-1.6197,-1.6209,-1.6212,-1.6223,-1.6216,-1.6222,-1.6223,-1.6225,-1.6227,-1.6184,-1.6225,-1.6224,-1.6224,-1.6224,-1.6224,0,-1.6144,-1.6148,-1.6159,-1.6169,-1.6179,-1.6173,-1.618,-1.6188,-1.6201,-1.6207,-1.6216,-1.6231,-1.6242,-1.6244,-1.6254,-1.6263,-1.626,-1.6266,-1.6265,-1.6266,-1.6232,-1.6228,-1.6268,-1.6268,-1.6268,-1.6268,-1.6268,-1.6268,-1.6164,-1.6183,-1.6183,-1.6204,-1.6208,-1.6222,-1.6227,-1.6234,-1.6239,-1.6256,-1.6265,-1.6267,-1.6271,-1.6283,-1.6293,-1.6293,-1.6297,-1.6304,-1.6303,-1.6272,-1.6268,-1.6264,-1.6259,-1.6305,-1.6305,-1.6335,-1.6336,-1.6336]},{"header":{"parameterUnit":"m.s-1","parameterCategory":1,"la1":30.2991,"la2":30.254,"lo1":-89.0895,"lo2":-89.0444,"dy":0.0017,"dx":0.0017,"nx":28,"ny":28,"refTime":"2023-10-29T03:00:00:Z","depth":0,"parameterNumber":3,"parameterNumberName":"V-component_of_WINDS"},"data":[0,0,0,0,0,0,0,0,0,0,0,0,0,0,0,0,0,0,0,0,0,0,0,0,0,0,0,0,0,0,0,0,0,0,0,0,0,0,0,0,0,0,0,0,0,0,0,0,0,0,0,0,0,0,0,0,0,0,0.4218,0.4217,0,0.4095,0.4094,0.4092,0.4041,0.4041,0.4041,0.4041,0.3914,0.3911,0.3907,0,0,0,0,0,0,0,0,0,0,0,0,0,0.4409,0.4405,0.4219,0.4217,0.4216,0.4096,0.4094,0.4092,0.4041,0.4041,0.4041,0.4042,0.3915,0.3911,0.3907,0,0,0,0,0,0,0,0,0,0,0,0,0,0.431,0.4404,0.4219,0.4175,0.417,0.4096,0.4094,0.4092,0.4041,0.4041,0.4041,0.4042,0.3917,0.3911,0.3906,0.3865,0,0,0.3889,0.3887,0,0,0,0,0,0,0,0,0.4316,0.4303,0.4183,0.4178,0.4172,0.4084,0.4114,0.4016,0.4041,0.409,0.4041,0.4042,0.397,0.396,0.3936,0.3859,0.3854,0.3889,0.3886,0.3883,0.3882,0,0,0,0,0,0,0,0.4322,0.4308,0.417,0.4182,0.4175,0.4162,0.4148,0.4095,0.4029,0.4086,0.4081,0.4068,0.3967,0.3942,0.3933,0.3852,0.3889,0.3884,0.3881,0.3879,0.3735,0.3735,0,0,0,0,0,0,0.4337,0.4314,0.4174,0.4166,0.4246,0.4158,0.4143,0.4112,0.403,0.4018,0.4068,0.4066,0.3951,0.3939,0.3928,0.3875,0.3883,0.3878,0.3875,0.3736,0.3735,0.3734,0,0,0,0,0,0,0.4341,0.4325,0.4179,0.4239,0.4219,0.4154,0.412,0.4109,0.4084,0.4016,0.4004,0.4054,0.3951,0.3936,0.3881,0.387,0.3876,0.3871,0.3736,0.3736,0.3735,0.3768,0,0,0,0,0,0,0.4347,0.4326,0.431,0.4239,0.4216,0.4134,0.4119,0.4107,0.4075,0.4071,0.4,0.3989,0.395,0.389,0.3876,0.3862,0.3867,0.3737,0.3736,0.3735,0.3767,0.3768,0.3769,0,0,0,0,0,0.4354,0.4324,0.431,0.4293,0.4195,0.4133,0.412,0.4077,0.4074,0.4057,0.4014,0.3991,0.3874,0.3885,0.3869,0.3853,0.3738,0.3736,0.3735,0.3767,0.3768,0.3769,0,0,0,0,0,0,0.4395,0.4314,0.4297,0.4244,0.4196,0.4125,0.4102,0.4079,0.4031,0.403,0.3977,0.3962,0.3911,0.3877,0.3891,0.3809,0.3804,0.3799,0.3834,0.3834,0.3835,0.3843,0.3862,0,0,0,0,0,0.4399,0.4356,0.4287,0.4247,0.4224,0.4167,0.4139,0.411,0.4058,0.4037,0.399,0.394,0.3892,0.3861,0.3813,0.3763,0.3746,0.3744,0.3745,0.3746,0.3742,0.3713,0.3711,0.373,0.373,0.373,0,0,0.4404,0.4355,0.4331,0.4254,0.4213,0.417,0.4151,0.4105,0.4072,0.403,0.3975,0.3939,0.388,0.3828,0.3802,0.3797,0.3734,0.3744,0.3746,0.3741,0.3711,0.3709,0.3708,0.3729,0.373,0.373,0,0,0.4393,0.4351,0.4313,0.4273,0.4212,0.4175,0.4166,0.4098,0.4073,0.4017,0.3985,0.3945,0.3863,0.3822,0.3791,0.3765,0.3742,0.3751,0.3754,0.3726,0.3724,0.3723,0.3713,0.371,0.3748,0.3748,0.3748,0,0.4407,0.4341,0.4296,0.4252,0.422,0.418,0.4141,0.4104,0.4031,0.4009,0.4005,0.3902,0.3859,0.3796,0.379,0.3766,0.3754,0.3758,0.3728,0.3726,0.3724,0.3714,0.371,0.3749,0.3749,0.3749,0.3749,0,0.4361,0.4316,0.4292,0.4223,0.4187,0.4146,0.4095,0.4065,0.4039,0.4003,0.3947,0.3895,0.3835,0.3819,0.3793,0.3752,0.3751,0.3739,0.3731,0.3724,0.3714,0.371,0.3751,0.3751,0.375,0.375,0,0,0.4371,0.4278,0.427,0.4238,0.4169,0.4132,0.409,0.4032,0.4007,0.3958,0.392,0.3853,0.3841,0.3806,0.3775,0.3751,0.3733,0.3741,0.3738,0.374,0.3684,0.3693,0.3689,0.3718,0.3717,0.3716,0.3688,0,0.4349,0.4271,0.423,0.4169,0.4126,0.4089,0.4052,0.4005,0.397,0.3928,0.3889,0.3842,0.383,0.3809,0.3783,0.374,0.372,0.3742,0.3681,0.368,0.3696,0.3684,0.3693,0.3669,0.3684,0.3683,0.3683,0,0.4312,0.4264,0.4199,0.4135,0.4116,0.4083,0.4027,0.3988,0.3935,0.3911,0.3872,0.3842,0.3795,0.3793,0.3728,0.3743,0.3716,0.3692,0.369,0.3681,0.368,0.3674,0.3661,0.3657,0.3676,0.3677,0.3677,0,0.4325,0.4244,0.4195,0.4169,0.4093,0.407,0.4038,0.3985,0.3953,0.3904,0.3883,0.383,0.38,0.3759,0.3716,0.3718,0.3655,0.3649,0.3633,0.3634,0.362,0.3621,0.3601,0.3605,0.3605,0.3605,0.3605,0,0.4303,0.4265,0.4199,0.4169,0.4125,0.4078,0.4036,0.4,0.3953,0.3915,0.388,0.3845,0.379,0.3748,0.3714,0.3665,0.3652,0.3631,0.3622,0.3633,0.3636,0.3614,0.3614,0.3604,0.3604,0.3604,0.3605,0,0.4309,0.4264,0.4207,0.414,0.4123,0.4093,0.4036,0.4005,0.3969,0.3921,0.3907,0.385,0.3798,0.3751,0.3683,0.366,0.361,0.3599,0.3628,0.3623,0.3609,0.3611,0.3573,0.3566,0.3576,0.3576,0.3576,0,0.4298,0.4268,0.4198,0.417,0.4138,0.4094,0.4061,0.4015,0.3983,0.392,0.3896,0.3843,0.3797,0.3717,0.3669,0.3617,0.3604,0.3594,0.3595,0.3608,0.3602,0.3604,0.36,0.3594,0.3595,0.3595,0.3595,0,0.4283,0.4262,0.4217,0.4164,0.4127,0.4082,0.4037,0.4017,0.3962,0.3927,0.3875,0.3839,0.377,0.3717,0.366,0.3625,0.36,0.3595,0.3588,0.3599,0.3616,0.3606,0.3628,0.3596,0.3596,0.3596,0.3595,0.3595,0.4279,0.425,0.4196,0.4147,0.4109,0.4068,0.4035,0.3995,0.3951,0.3891,0.3867,0.3813,0.3761,0.3681,0.3647,0.3604,0.3599,0.359,0.3587,0.3585,0.3587,0.3625,0.3594,0.3594,0.3594,0.3594,0.3594,0,0.4261,0.4225,0.418,0.4119,0.408,0.4062,0.4011,0.398,0.3933,0.3887,0.3843,0.3783,0.3731,0.368,0.3626,0.3601,0.3589,0.3589,0.3589,0.3582,0.3595,0.3606,0.36,0.36,0.36,0.36,0.36,0.36,0.4247,0.4197,0.417,0.4101,0.4065,0.4013,0.3985,0.3947,0.391,0.3844,0.3802,0.3769,0.372,0.3662,0.3614,0.36,0.3582,0.3585,0.3568,0.3581,0.3581,0.3581,0.359,0.3581,0.3581,0.3557,0.3557,0.3557]}]]